2023/02/04 00:00:00,90.6,-0.6
2023/02/04 00:10:00,90.5,-0.4
2023/02/04 00:20:00,90.4,-0.3
2023/02/04 00:30:00,90.3,-0.2
2023/02/04 00:40:00,90.3,-0.6
2023/02/04 00:50:00,90.2,-1.0
2023/02/04 01:00:00,90.1,-1.1
2023/02/04 01:10:00,90.0,-1.2
2023/02/04 01:20:00,89.9,-1.5
2023/02/04 01:30:00,89.8,-1.4
2023/02/04 01:40:00,89.7,-1.7
2023/02/04 01:50:00,89.7,-1.2
2023/02/04 02:00:00,89.8,-1.3
2023/02/04 02:10:00,89.7,-1.4
2023/02/04 02:20:00,89.7,-1.6
2023/02/04 02:30:00,89.6,-1.2
2023/02/04 02:40:00,89.6,-1.0
2023/02/04 02:50:00,89.6,-0.3
2023/02/04 03:00:00,89.5,-1.2
2023/02/04 03:10:00,89.6,-1.5
2023/02/04 03:20:00,89.6,-1.9
2023/02/04 03:30:00,89.5,-1.9
2023/02/04 03:40:00,89.5,-2.2
2023/02/04 03:50:00,89.4,-2.2
2023/02/04 04:00:00,89.4,-2.5
2023/02/04 04:10:00,89.2,-2.2
2023/02/04 04:20:00,89.0,-2.1
2023/02/04 04:30:00,88.6,-2.0
2023/02/04 04:40:00,88.0,-1.9
2023/02/04 04:50:00,87.0,-1.5
2023/02/04 05:00:00,86.0,-1.2
2023/02/04 05:10:00,84.8,-0.9
2023/02/04 05:20:00,84.2,-1.1
2023/02/04 05:30:00,84.1,-1.2
2023/02/04 05:40:00,83.7,-1.1
2023/02/04 05:50:00,83.5,-1.0
2023/02/04 06:00:00,83.5,-1.1
2023/02/04 06:10:00,83.5,-1.0
2023/02/04 06:20:00,83.5,-0.7
2023/02/04 06:30:00,83.4,-0.4
2023/02/04 06:40:00,83.4,-0.3
2023/02/04 06:50:00,83.4,-0.5
2023/02/04 07:00:00,83.4,-0.5
2023/02/04 07:10:00,83.4,-0.4
2023/02/04 07:20:00,83.3,-0.4
2023/02/04 07:30:00,83.1,-0.4
2023/02/04 07:40:00,83.2,-0.3
2023/02/04 07:50:00,83.1, 0.2
2023/02/04 08:00:00,82.9, 0.7
2023/02/04 08:10:00,82.8, 0.8
2023/02/04 08:20:00,82.5, 1.1
2023/02/04 08:30:00,82.5, 1.7
2023/02/04 08:40:00,82.4, 1.8
2023/02/04 08:50:00,82.4, 1.8
2023/02/04 09:00:00,82.3, 2.4
2023/02/04 09:10:00,82.3, 2.5
2023/02/04 09:20:00,82.2, 3.3
2023/02/04 09:30:00,82.1, 3.1
2023/02/04 09:40:00,82.2, 3.2
2023/02/04 09:50:00,82.0, 4.7
2023/02/04 10:00:00,81.9, 5.1
2023/02/04 10:10:00,81.9, 5.1
2023/02/04 10:20:00,81.8, 5.3
2023/02/04 10:30:00,81.7, 8.0
2023/02/04 10:40:00,81.6, 5.8
2023/02/04 10:50:00,81.7, 4.4
2023/02/04 11:00:00,81.7, 4.2
2023/02/04 11:10:00,81.7, 4.0
2023/02/04 11:20:00,82.1, 3.2
2023/02/04 11:30:00,82.2, 2.6
2023/02/04 11:40:00,81.6, 2.8
2023/02/04 11:50:00,81.6, 3.1
2023/02/04 12:00:00,81.6, 2.7
2023/02/04 12:10:00,81.5, 3.3
2023/02/04 12:20:00,81.4, 2.4
2023/02/04 12:30:00,81.1, 3.5
2023/02/04 12:40:00,81.0, 3.7
2023/02/04 12:50:00,81.1, 3.2
2023/02/04 13:00:00,81.2, 5.1
2023/02/04 13:10:00,81.2, 5.2
2023/02/04 13:20:00,81.0, 5.3
2023/02/04 13:30:00,81.0, 5.2
2023/02/04 13:40:00,81.2, 4.7
2023/02/04 13:50:00,80.9, 5.4
2023/02/04 14:00:00,80.9, 4.6
2023/02/04 14:10:00,80.9, 4.2
2023/02/04 14:20:00,80.6, 5.1
2023/02/04 14:30:00,80.5, 5.7
2023/02/04 14:40:00,80.7, 6.1
2023/02/04 14:50:00,80.6, 8.2
2023/02/04 15:00:00,80.4, 5.7
2023/02/04 15:10:00,79.8, 4.6
2023/02/04 15:20:00,79.5, 4.2
2023/02/04 15:30:00,79.5, 3.2
2023/02/04 15:40:00,79.6, 2.9
2023/02/04 15:50:00,79.5, 2.6
2023/02/04 16:00:00,79.6, 2.4
2023/02/04 16:10:00,79.4, 2.1
2023/02/04 16:20:00,79.3, 1.8
2023/02/04 16:30:00,79.2, 1.7
2023/02/04 16:40:00,79.1, 1.3
2023/02/04 16:50:00,79.2, 0.8
2023/02/04 17:00:00,78.9, 0.6
2023/02/04 17:10:00,78.6, 0.7
2023/02/04 17:20:00,78.4, 0.7
2023/02/04 17:30:00,78.9, 1.0
2023/02/04 17:40:00,79.1, 1.1
2023/02/04 17:50:00,78.4, 0.8
2023/02/04 18:00:00,78.4, 1.1
2023/02/04 18:10:00,78.2, 1.2
2023/02/04 18:20:00,77.8, 1.2
2023/02/04 18:30:00,77.5, 1.3
2023/02/04 18:40:00,77.2, 0.9
2023/02/04 18:50:00,77.2, 0.8
2023/02/04 19:00:00,77.1, 1.1
2023/02/04 19:10:00,76.9, 0.7
2023/02/04 19:20:00,76.7, 1.1
2023/02/04 19:30:00,76.5, 0.9
2023/02/04 19:40:00,76.4, 0.9
2023/02/04 19:50:00,76.3, 1.0
2023/02/04 20:00:00,76.6, 0.8
2023/02/04 20:10:00,77.6, 0.7
2023/02/04 20:20:00,77.2, 0.9
2023/02/04 20:30:00,76.9, 0.5
2023/02/04 20:40:00,76.9, 0.1
2023/02/04 20:50:00,76.9, 0.9
2023/02/04 21:00:00,76.9, 0.1
2023/02/04 21:10:00,76.8, 0.6
2023/02/04 21:20:00,76.8,-0.1
2023/02/04 21:30:00,76.8,-0.3
2023/02/04 21:40:00,76.7,-0.2
2023/02/04 21:50:00,76.6,-0.1
2023/02/04 22:00:00,76.5,-0.4
2023/02/04 22:10:00,76.3,-0.3
2023/02/04 22:20:00,76.0,-0.5
2023/02/04 22:30:00,76.0,-0.5
2023/02/04 22:40:00,75.8,-0.6
2023/02/04 22:50:00,75.9,-0.6
2023/02/04 23:00:00,76.0,-0.7
2023/02/04 23:10:00,76.0,-0.7
2023/02/04 23:20:00,76.0,-0.8
2023/02/04 23:30:00,76.1,-0.8
2023/02/04 23:40:00,76.1,-0.6
2023/02/04 23:50:00,76.2,-0.8
